Theta_e
314 314 314 312 309 309 309 308 307 310 312 313 312 312 312 314 317 318 320 319 315 313 312 312 312 311 311 311 310 312 315 315 314 314 315 316 316 316 317 318 319 320 320 321 321 320 321 321 321 322 322 324 325 325 325 326 328 330 330 330 330 330 329 328 327 326 325 324 323 323 321 319 318 315
312 313 314 313 311 309 310 311 309 309 310 310 310 310 310 312 314 315 317 319 315 311 311 311 311 312 311 310 309 308 310 311 311 312 313 313 314 314 315 315 315 315 316 316 317 316 317 317 318 317 317 318 321 324 325 325 326 327 328 329 329 330 329 329 329 328 326 325 324 324 322 321 320 319
311 312 313 314 312 310 311 313 311 310 309 309 309 309 309 310 311 311 313 316 314 310 311 311 309 309 308 308 307 308 309 310 311 311 310 311 311 312 312 313 313 313 314 314 314 314 315 316 316 315 315 315 315 319 322 323 324 325 325 327 328 328 328 328 328 328 327 326 325 325 324 322 321 320
312 312 312 313 311 309 310 312 311 311 310 310 310 310 310 310 311 310 310 313 313 310 310 310 308 307 307 307 307 309 309 310 310 311 310 310 310 310 310 311 311 312 311 312 312 313 314 314 314 314 314 315 315 315 317 319 322 324 324 325 325 326 327 327 328 328 328 327 326 325 324 324 322 321
313 311 312 312 310 308 308 309 309 310 309 310 310 310 311 311 311 311 310 311 310 309 308 308 308 309 309 309 309 310 310 309 309 309 310 310 310 310 310 310 310 311 310 310 311 311 312 312 312 313 313 314 314 315 317 318 320 322 323 324 325 325 325 326 326 327 327 327 326 326 325 324 323 322
313 312 313 312 311 309 308 307 308 309 308 308 309 309 310 309 309 309 309 309 309 308 308 309 309 310 310 310 310 310 309 308 308 309 309 310 310 310 310 310 310 310 310 311 311 311 311 311 311 311 312 313 314 316 318 319 319 319 320 322 323 324 325 325 325 325 326 326 326 326 326 324 323 323
313 312 312 311 311 311 309 307 307 308 308 308 309 309 308 307 307 307 308 308 309 309 309 309 308 308 308 308 307 307 307 308 308 310 310 310 310 310 310 310 310 310 310 310 310 311 310 311 311 311 311 313 314 315 318 320 320 319 318 318 319 321 323 323 324 324 324 325 325 325 326 326 324 324
313 312 311 310 311 311 309 308 308 308 309 309 309 308 308 307 307 307 307 307 307 307 307 307 306 307 307 307 307 307 307 308 308 309 308 309 309 309 309 309 309 309 309 309 309 310 310 311 313 313 312 312 313 315 317 320 321 320 318 317 317 318 319 320 321 322 323 324 324 324 324 325 325 324
314 313 312 310 310 311 310 310 309 309 309 309 308 307 307 307 307 306 306 306 306 306 307 307 306 307 307 307 307 307 307 307 307 308 308 308 308 309 309 309 309 309 310 310 310 310 311 312 313 313 312 312 312 312 314 316 318 318 317 317 317 317 316 316 316 318 320 322 323 324 324 324 324 324
314 313 313 312 311 311 311 310 309 309 309 309 307 306 306 305 305 305 306 306 306 305 305 305 305 305 305 305 306 306 306 307 307 307 308 308 307 308 308 309 309 309 310 310 310 311 311 310 310 309 309 309 309 309 310 312 313 315 315 315 315 315 316 315 315 315 316 318 320 323 324 323 324 323
314 313 313 312 312 311 310 309 308 308 308 308 307 306 305 304 303 303 303 302 302 302 302 303 303 303 304 304 305 305 305 306 306 306 307 307 306 307 307 307 308 308 308 308 308 308 308 307 307 308 308 308 309 309 309 310 311 311 312 313 314 314 315 316 316 316 315 316 317 320 322 323 323 323
314 313 312 312 311 311 310 309 308 308 307 307 306 304 302 300 299 297 297 298 299 300 301 302 302 302 302 303 303 303 303 304 304 304 305 305 305 305 306 307 307 307 307 307 307 307 307 307 308 309 309 309 310 311 310 311 311 311 311 312 314 315 315 316 316 317 316 316 316 318 320 322 323 323
314 313 311 311 310 310 309 308 307 306 306 306 305 303 300 298 297 296 296 296 297 298 299 299 299 299 299 299 300 300 301 302 302 302 302 303 303 303 304 305 306 307 307 307 307 307 307 307 307 308 308 309 310 310 310 310 310 310 310 311 312 313 314 316 317 317 317 316 316 317 319 321 322 323
313 312 311 310 310 310 309 307 306 306 306 305 304 302 301 299 298 298 298 298 298 298 298 298 298 298 298 298 298 299 299 300 300 301 301 301 301 301 302 303 304 306 307 307 306 306 307 306 306 306 306 306 307 307 308 308 308 308 309 309 310 310 312 314 316 317 318 318 317 317 317 318 319 321
312 311 311 311 310 309 308 306 306 305 305 304 303 301 300 300 301 301 300 300 300 300 299 299 299 299 299 299 299 299 299 299 299 299 300 300 300 301 301 301 302 303 304 304 303 304 306 306 305 305 305 306 306 306 306 306 306 306 307 307 307 308 308 310 312 314 317 317 318 317 316 315 315 317
312 311 310 310 309 308 307 306 305 305 304 303 302 301 301 302 302 301 301 301 301 300 300 300 300 300 299 300 300 300 300 300 300 300 300 300 300 300 300 300 300 300 301 300 300 301 302 303 303 304 304 304 304 304 304 304 303 303 303 303 303 304 305 307 308 310 312 316 318 319 318 316 316 316
312 311 310 309 308 306 306 305 305 304 303 302 302 302 303 303 302 302 301 301 301 301 300 299 299 300 300 299 300 300 300 300 300 300 300 300 300 300 299 299 299 299 299 299 299 299 300 300 301 301 301 302 302 302 302 302 302 302 302 303 303 303 305 307 307 308 309 312 316 318 319 318 318 318
311 310 309 308 306 305 305 304 303 303 302 302 302 302 303 302 302 301 300 299 300 300 299 299 299 300 300 299 300 300 300 300 300 300 300 300 300 299 299 298 298 298 298 298 298 299 299 299 299 300 300 300 301 301 302 302 302 303 304 304 304 304 305 306 306 307 308 309 314 318 319 319 318 318
309 308 307 306 305 305 304 303 303 302 301 301 302 302 302 301 300 299 298 298 298 298 298 298 299 298 298 298 299 299 299 300 300 300 299 299 299 298 297 297 296 296 297 297 297 298 298 298 299 299 300 300 300 301 301 302 302 303 304 304 304 304 305 306 306 306 307 308 311 317 319 319 318 318
306 306 306 305 305 304 304 303 302 302 301 302 301 301 301 300 299 298 297 297 297 297 297 298 298 297 297 297 297 297 297 297 298 298 297 297 297 296 296 295 296 296 296 296 296 297 298 298 299 299 299 300 300 300 301 301 302 303 303 304 305 305 305 306 306 307 308 308 310 315 319 319 318 317
305 305 305 305 304 303 303 302 302 301 302 301 301 300 299 299 298 298 297 297 297 297 297 297 297 296 296 296 296 296 296 296 296 295 295 295 296 295 295 295 295 295 296 296 296 296 297 298 298 299 299 299 299 299 300 301 302 303 304 305 307 307 306 307 307 307 309 311 312 315 318 318 317 316
304 304 304 303 303 303 302 302 302 302 301 300 299 298 298 298 297 297 296 296 296 296 296 296 296 295 295 295 295 294 294 294 294 294 293 293 294 294 294 294 295 295 295 296 296 296 297 297 298 298 298 298 299 299 300 301 301 302 305 308 310 309 309 309 309 310 312 313 315 316 317 316 315 314
302 301 301 300 300 300 299 299 300 300 299 298 298 297 296 296 295 295 295 294 294 293 293 293 293 292 292 292 292 292 292 292 292 292 291 292 293 293 294 294 295 295 295 296 296 296 297 297 298 298 297 297 298 298 299 300 300 301 304 309 311 310 310 310 311 311 312 313 314 314 315 313 312 311
299 298 297 297 297 296 297 297 297 297 297 296 296 295 294 294 293 293 293 292 292 291 291 291 291 291 290 290 290 290 290 290 290 291 291 291 292 293 293 294 294 295 295 296 296 296 297 297 297 297 297 297 297 297 298 298 298 299 303 307 309 309 309 309 309 310 310 310 311 311 311 310 309 309
297 296 296 296 296 296 297 297 297 296 296 295 295 294 293 293 292 292 292 291 291 291 291 291 291 290 290 290 290 290 290 290 291 291 291 291 291 292 293 293 294 295 295 296 296 296 297 297 297 297 297 296 297 297 297 297 297 298 301 303 305 306 307 307 307 308 308 308 308 308 308 308 308 308
294 294 296 296 297 297 297 296 296 295 295 294 293 293 293 292 292 292 291 291 291 291 291 291 291 291 291 291 291 291 291 291 291 291 291 291 291 292 292 293 293 294 295 295 296 296 296 296 296 296 296 296 296 296 296 296 297 297 298 299 301 304 305 305 306 306 306 305 305 305 306 307 307 307
293 295 296 296 296 296 296 296 296 295 294 293 293 293 292 292 292 292 292 292 292 292 291 291 291 291 291 291 291 291 291 291 292 292 292 292 292 292 292 292 293 293 294 294 295 295 296 296 296 296 296 296 296 296 296 296 296 296 297 298 299 301 302 304 305 304 304 304 304 304 304 304 305 306
294 295 295 295 295 296 295 295 294 294 293 293 293 293 293 292 292 292 292 292 292 292 292 291 291 291 292 292 292 292 292 292 292 292 292 292 292 292 292 292 292 293 293 293 294 294 295 295 296 296 296 296 296 296 296 296 296 296 296 297 298 299 301 302 303 303 303 303 303 303 303 303 303 304
295 295 295 295 295 295 294 294 294 293 293 294 293 293 293 292 292 291 291 291 291 291 291 291 291 291 291 291 292 292 292 292 292 292 292 292 292 292 293 293 293 293 293 293 293 294 294 294 295 295 295 296 295 296 296 295 296 296 296 296 297 298 300 300 301 302 302 302 302 303 302 302 302 302
295 295 294 294 293 293 293 293 293 293 293 293 293 292 292 291 291 291 290 290 290 290 290 290 290 291 291 291 291 291 291 292 292 292 292 292 292 292 292 293 293 293 293 293 293 293 293 294 294 294 295 295 295 295 295 296 296 296 296 296 297 298 299 300 301 302 302 301 301 302 302 301 300 300
293 293 293 293 293 293 293 293 292 292 292 292 291 291 291 290 290 290 290 290 290 290 290 290 290 290 290 290 290 290 290 290 291 291 291 292 292 292 292 292 293 293 293 293 293 293 294 294 294 294 294 295 295 295 295 295 296 296 296 297 297 298 299 299 300 301 301 300 300 300 300 299 298 297
292 292 293 293 293 293 292 292 292 292 291 291 291 291 290 290 290 290 290 290 290 290 290 290 290 290 290 290 290 290 290 290 290 290 290 290 291 291 291 292 292 292 292 293 293 293 293 294 294 294 294 294 295 295 295 295 295 295 296 296 296 297 298 299 300 301 300 300 299 298 298 297 296 296
292 293 293 292 292 292 292 292 291 291 291 291 291 290 290 290 290 290 290 290 290 290 290 290 290 290 290 289 289 289 289 289 289 289 289 289 290 290 290 291 291 291 291 292 292 292 293 293 293 294 294 294 294 294 294 294 294 294 295 295 295 296 298 299 300 300 299 298 297 296 296 295 295 295
292 293 292 292 292 291 291 291 291 290 290 290 290 290 290 290 290 290 290 290 289 289 289 289 289 289 289 289 289 289 289 289 289 288 289 289 289 289 290 290 290 291 291 291 291 292 292 292 293 293 293 293 293 293 293 293 293 294 294 294 295 296 298 299 299 298 298 297 296 295 295 294 294 294
292 292 292 291 291 291 291 290 290 290 289 289 289 289 289 289 289 289 289 289 289 289 289 289 288 289 289 289 289 288 288 288 288 288 288 289 289 289 289 290 290 290 291 291 291 291 291 292 292 292 292 292 293 293 293 293 293 294 294 295 295 296 297 298 298 297 297 296 295 295 294 293 293 293
292 291 291 291 291 290 290 290 289 289 289 289 289 289 289 289 289 289 289 289 288 288 288 288 288 288 288 288 288 288 288 288 288 288 288 288 289 289 289 289 289 290 290 290 290 290 291 291 292 292 292 292 292 292 293 293 293 294 294 295 295 296 297 298 298 297 296 295 295 294 293 293 292 293
292 291 291 291 290 290 290 289 289 289 289 289 289 289 289 289 289 288 288 288 288 287 287 287 287 287 287 288 288 288 288 288 288 288 288 288 288 288 289 289 289 289 289 289 290 290 290 291 291 291 292 292 292 292 292 292 293 293 294 295 296 296 297 297 297 296 295 295 294 293 293 292 292 292
291 291 290 290 290 290 289 289 289 289 289 289 289 288 288 288 288 288 287 287 287 287 287 287 287 287 287 287 288 287 288 288 288 288 288 288 288 288 288 289 289 289 289 289 289 289 290 290 290 291 291 292 292 292 292 292 293 293 294 296 297 297 297 297 296 295 294 294 293 292 292 292 292 292
291 290 290 290 290 289 289 289 289 289 289 289 288 288 288 288 288 287 287 287 287 287 287 287 287 287 287 287 287 287 288 287 288 288 288 288 288 288 288 289 289 289 289 289 289 289 290 290 290 290 291 291 291 291 292 292 292 293 294 295 296 297 297 297 296 294 293 293 292 291 291 292 292 292
291 290 290 290 289 289 289 289 289 289 288 288 288 288 287 287 287 287 287 287 287 287 287 287 287 287 287 287 287 287 287 287 288 288 288 288 288 288 288 288 289 289 289 289 289 289 290 290 290 290 290 291 291 291 291 292 292 292 293 293 294 296 297 297 296 294 292 292 292 291 291 291 290 290
290 290 290 289 289 288 288 288 289 288 288 288 287 287 287 286 286 286 286 286 287 287 287 287 287 287 287 287 287 287 287 287 287 288 288 288 288 288 288 288 289 289 289 289 289 289 290 290 290 290 290 291 291 291 291 292 292 292 293 293 293 295 296 297 297 296 294 292 291 291 290 289 289 289
290 290 289 289 288 288 288 289 288 288 288 288 287 286 286 286 286 286 286 286 286 286 286 287 287 287 287 287 287 287 287 287 287 287 288 288 288 288 288 289 289 289 289 289 289 290 290 290 290 290 291 291 291 291 291 291 292 292 293 293 293 294 295 295 295 296 295 293 292 291 290 289 289 288
289 289 288 288 288 288 288 288 288 288 288 287 287 286 286 286 286 286 286 286 286 286 286 286 286 287 287 287 287 287 287 287 287 287 288 288 288 288 288 289 289 289 289 289 290 290 290 290 290 290 291 291 291 291 291 291 292 292 292 293 293 293 293 293 293 293 293 293 292 292 292 291 290 289
289 288 288 288 288 288 288 288 288 288 288 287 287 286 286 286 286 286 286 286 286 286 286 286 286 286 287 287 287 287 287 287 287 287 288 288 288 288 288 288 289 289 289 290 290 290 290 290 290 290 291 291 291 291 291 291 292 292 292 292 292 291 291 292 291 291 291 291 291 292 292 291 291 291
288 288 288 288 288 288 288 288 288 287 287 287 287 286 286 286 286 286 286 286 286 286 286 286 286 286 286 287 287 287 287 287 287 288 288 288 288 288 288 289 289 289 290 290 290 290 290 290 290 290 291 291 291 291 291 291 292 292 291 291 291 290 290 291 290 290 290 290 290 291 291 291 291 291
Wind_Speed
10 8 5 5 6 6 7 8 7 7 7 7 7 9 8 6 3 2 3 4 2 9 16 12 12 17 16 15 14 12 9 6 7 8 7 8 9 11 11 11 11 11 12 12 13 14 15 16 16 16 16 16 17 20 23 28 31 32 31 31 31 30 29 28 28 28 27 25 24 24 25 25 25 24
8 7 5 3 4 6 8 8 9 8 7 6 5 5 6 6 5 3 2 2 3 9 15 13 14 18 17 16 15 14 12 10 9 9 9 9 10 11 13 14 14 15 15 16 16 17 18 19 20 20 20 19 18 18 19 22 26 29 32 33 33 32 32 31 31 30 30 30 28 26 26 26 27 26
5 8 7 3 3 5 5 5 6 6 7 7 6 5 5 5 4 4 2 1 4 10 15 16 17 19 19 18 16 15 14 13 13 13 13 13 13 14 14 15 15 16 18 18 18 18 18 19 20 20 20 20 20 20 19 19 21 24 28 31 33 34 34 34 34 33 33 33 32 30 28 28 29 28
5 8 7 4 3 4 4 5 4 1 2 4 4 4 5 4 2 2 1 2 6 11 14 15 18 18 18 17 16 16 16 15 15 16 16 16 17 17 17 17 17 17 18 18 17 17 18 19 20 21 21 21 21 21 21 21 20 21 23 26 29 32 34 35 35 36 36 35 34 34 33 32 31 31
6 6 7 5 3 4 6 6 3 1 1 2 3 2 1 2 1 1 2 3 7 12 13 14 16 16 16 16 15 16 18 18 18 17 17 18 19 19 19 18 18 18 17 17 17 18 19 19 20 21 22 22 22 21 21 20 20 20 21 23 25 27 30 33 35 36 36 36 36 36 37 36 33 32
7 6 7 6 5 5 5 4 3 2 3 2 2 2 1 2 3 3 5 5 7 12 15 15 15 14 14 15 16 17 19 20 19 18 17 18 19 19 19 19 19 18 17 16 17 18 20 20 20 20 20 20 21 21 21 21 20 20 21 22 23 24 26 28 31 33 35 37 37 37 39 39 37 35
9 8 8 7 7 7 4 3 3 3 2 2 1 2 1 2 3 4 5 6 7 10 14 14 14 15 16 17 18 19 19 19 19 19 19 19 19 19 19 19 19 18 17 17 18 20 22 22 21 19 18 18 19 20 22 22 22 21 21 22 22 23 25 26 27 29 31 33 35 37 38 39 40 39
12 11 10 8 8 8 6 3 3 2 1 1 2 3 2 3 4 4 4 6 7 9 12 15 17 17 18 19 19 19 19 19 18 19 19 19 20 19 18 19 19 19 19 19 20 21 21 20 18 16 16 16 17 18 20 22 23 23 23 24 24 24 25 25 26 28 29 30 32 34 36 38 40 40
14 14 14 11 9 9 7 4 3 3 3 4 3 4 4 5 6 7 7 8 9 10 13 17 18 18 18 20 20 19 20 21 21 20 20 20 21 20 19 19 19 20 19 19 18 19 19 18 18 19 19 18 18 19 19 22 24 25 26 26 26 26 26 27 27 28 29 30 31 32 33 35 37 39
16 16 16 13 11 10 9 7 6 5 6 6 6 5 6 6 7 8 9 9 10 11 13 16 18 19 19 20 20 19 20 21 22 22 23 22 21 21 20 20 19 18 18 18 18 19 20 22 23 23 23 22 21 20 21 21 23 24 25 26 26 27 28 29 29 29 29 30 31 33 33 34 35 37
16 15 15 14 12 11 10 8 8 8 8 8 7 6 7 8 9 10 11 11 11 12 14 16 17 18 19 19 19 18 18 19 19 20 22 22 21 21 21 22 21 21 22 23 25 25 26 26 25 23 21 20 20 20 20 21 22 23 26 27 28 29 29 29 30 30 29 30 31 33 34 34 34 35
17 15 15 15 13 12 11 10 10 10 10 10 8 8 9 11 12 12 12 12 12 12 14 16 17 18 19 20 19 19 19 18 18 19 20 21 22 23 22 22 22 23 24 24 25 25 24 22 21 19 18 18 19 19 19 19 20 21 23 26 28 30 32 32 31 30 29 29 29 31 33 34 34 35
18 17 16 14 13 13 13 12 12 12 11 11 10 11 12 12 12 12 13 13 13 14 14 16 17 18 19 21 21 20 19 17 18 20 22 22 24 26 26 24 20 19 20 20 19 17 16 17 18 18 18 18 19 20 21 21 21 21 22 23 24 27 30 31 32 32 31 30 29 29 30 31 32 33
19 19 18 16 14 14 14 13 13 13 12 12 13 14 13 11 10 11 12 13 13 14 15 17 17 16 18 20 20 19 20 20 21 23 23 24 25 26 25 24 22 18 17 20 23 21 18 20 22 21 21 22 22 24 25 26 25 24 23 23 24 25 26 27 28 30 32 32 31 30 29 29 30 31
20 19 19 18 17 16 15 14 14 13 13 13 14 13 11 10 10 10 11 12 13 14 15 17 17 16 18 21 20 20 22 22 22 23 24 24 23 21 18 18 21 21 21 25 30 30 26 25 27 26 24 24 23 24 26 27 27 27 27 27 28 28 28 27 27 28 29 30 31 31 29 29 29 30
21 20 19 18 17 16 14 14 14 14 14 14 13 12 11 10 10 11 12 14 15 16 18 19 20 20 21 22 23 22 22 21 22 24 25 24 23 21 18 17 21 26 28 29 32 34 32 30 31 33 32 30 29 28 28 28 29 31 31 32 31 29 29 29 28 28 29 29 29 29 29 28 27 27
22 21 19 17 15 13 13 13 13 12 13 13 12 12 11 10 10 10 11 12 14 17 19 21 22 23 23 24 24 23 22 23 25 26 26 25 23 22 22 23 27 31 32 30 29 33 34 31 30 33 33 32 32 31 30 29 29 29 29 30 30 29 29 29 28 28 28 28 28 28 27 26 25 24
21 20 18 16 13 12 11 10 10 10 11 11 11 11 10 10 9 10 12 14 15 16 18 20 22 22 22 23 24 24 23 25 27 26 25 25 25 25 27 30 33 35 34 30 26 27 29 28 28 30 30 30 30 29 28 27 26 26 27 27 28 29 30 30 29 27 27 27 27 28 27 26 24 23
18 17 16 14 13 11 10 9 10 11 11 12 13 13 13 13 13 14 16 17 17 17 17 19 21 20 19 19 20 20 21 23 24 24 25 25 27 30 31 31 31 31 31 28 24 24 27 28 29 31 28 27 28 27 27 27 26 26 27 28 29 29 29 29 28 27 27 25 26 28 28 26 23 23
15 14 13 12 10 9 10 11 11 12 12 14 15 16 16 16 17 18 19 17 15 15 16 17 18 17 16 16 17 18 19 20 21 22 24 25 26 28 27 25 25 25 24 23 21 24 27 26 27 30 29 28 30 29 28 26 25 26 28 29 30 31 29 28 27 26 26 26 26 27 27 26 24 23
10 8 8 7 8 9 11 11 11 12 12 14 15 15 15 16 16 17 16 15 13 14 16 17 17 17 18 19 21 21 22 22 22 23 24 24 23 23 20 19 21 22 22 21 21 24 26 24 26 30 30 29 29 26 23 21 21 24 26 26 26 28 29 29 27 26 25 24 24 25 26 26 25 23
8 7 7 7 8 10 10 11 11 12 13 14 14 13 13 13 14 14 14 15 16 17 19 20 21 23 25 26 28 28 29 29 28 27 27 25 24 22 18 17 19 21 21 19 17 21 24 23 25 27 26 24 22 18 17 20 21 23 25 23 22 22 23 24 23 22 20 19 19 22 23 23 22 20
10 8 7 7 7 7 8 9 10 11 12 12 11 11 12 13 15 16 17 19 20 21 22 22 23 24 24 25 26 26 26 27 27 27 27 25 24 23 22 20 18 15 13 12 12 17 21 21 20 19 16 13 12 14 18 22 23 24 25 23 19 16 15 14 13 13 13 13 15 18 19 19 19 19
9 6 4 3 3 4 5 6 8 8 8 9 10 12 14 17 18 18 18 18 19 19 20 20 21 21 20 19 19 19 20 20 21 22 22 22 23 24 24 23 19 16 16 17 17 20 21 19 18 19 16 11 10 14 20 24 25 24 22 19 15 13 12 11 10 10 11 11 13 15 16 17 17 18
5 1 2 3 3 4 4 5 6 7 9 11 14 16 16 16 16 15 15 16 16 18 20 21 21 20 19 17 17 18 18 17 17 18 19 19 21 22 23 23 22 21 22 21 19 21 22 20 19 20 20 17 16 18 20 24 26 22 17 18 18 16 14 13 13 14 14 14 14 14 15 15 15 16
0 1 3 4 3 3 5 6 9 11 14 15 15 14 13 12 12 13 14 16 18 20 21 22 22 21 20 20 20 19 18 17 17 18 18 18 19 21 22 23 22 22 21 19 18 19 22 22 21 19 18 17 19 20 20 21 25 23 18 18 19 18 17 18 17 16 16 16 15 14 13 12 12 13
1 1 2 3 3 6 8 11 14 15 15 14 11 10 10 11 13 14 16 17 19 20 21 21 22 22 21 21 21 21 21 21 20 19 19 19 20 21 22 23 24 24 24 22 20 18 20 22 22 21 20 19 17 17 15 16 21 24 21 18 17 18 19 20 18 18 18 18 17 17 15 12 11 12
2 1 2 4 7 10 12 14 15 14 12 10 9 10 11 12 13 14 15 16 18 19 20 20 20 20 20 21 21 22 23 23 23 23 23 22 23 23 24 24 25 26 26 24 22 21 20 21 21 21 22 21 17 14 13 14 18 22 22 20 19 18 18 18 19 19 18 17 18 19 17 14 12 12
0 2 5 8 10 11 11 10 10 9 9 9 9 10 11 11 11 12 14 15 16 17 18 18 18 18 19 20 21 22 23 24 24 24 24 24 24 24 25 26 26 26 26 25 24 23 21 22 22 21 21 21 20 18 17 17 19 21 22 22 21 19 18 18 18 18 17 17 17 17 16 13 12 12
4 6 7 8 7 6 7 7 8 8 7 7 7 8 9 10 12 14 15 17 18 18 19 19 20 20 21 21 21 21 21 21 22 22 23 23 23 22 24 25 25 25 26 26 26 25 24 24 23 22 21 21 21 21 19 18 19 21 23 24 21 18 16 15 15 16 17 17 14 13 13 12 11 12
5 5 4 5 6 7 7 8 9 9 9 9 9 11 13 15 17 18 19 20 21 21 22 22 22 22 22 22 23 22 22 21 21 21 21 22 22 22 22 22 23 23 24 26 26 26 25 24 23 23 22 21 20 20 19 18 17 18 21 22 20 17 16 15 16 16 17 14 11 10 10 11 11 11
3 5 6 7 7 8 9 10 11 11 11 12 14 16 17 18 19 19 20 21 21 22 22 22 23 23 23 23 23 23 23 23 23 23 23 23 23 22 21 21 21 20 21 23 25 24 23 23 23 23 22 21 20 19 18 18 18 18 19 21 20 19 18 17 16 15 14 11 9 7 7 8 10 10
7 7 8 8 9 10 11 12 12 13 14 15 16 17 17 18 19 19 20 20 21 22 23 23 24 24 24 24 24 24 24 24 25 25 24 24 23 22 21 21 21 21 21 22 23 22 22 22 22 23 23 23 22 21 20 19 20 20 20 21 21 19 18 17 16 14 12 9 7 6 5 6 8 9
7 8 9 10 10 11 12 12 12 14 16 17 17 17 18 18 19 19 20 21 22 22 23 24 24 24 24 24 24 24 23 24 25 25 24 23 23 22 22 21 21 22 21 21 22 21 21 21 21 22 23 25 25 25 24 21 21 22 22 20 20 19 17 17 16 13 10 9 8 7 7 7 7 7
8 9 10 10 11 11 11 12 13 15 17 17 18 18 20 21 22 22 22 22 23 23 24 24 24 24 24 23 23 23 24 24 24 24 24 23 22 22 22 22 22 22 21 21 22 22 20 20 20 19 20 20 20 22 24 23 23 23 23 22 21 20 18 16 14 11 9 9 9 9 9 9 8 7
9 9 9 10 11 11 11 12 14 16 18 19 19 20 21 23 24 24 25 25 25 25 25 25 25 24 24 24 24 24 24 24 24 23 22 22 22 22 22 22 22 22 22 22 23 22 20 19 19 17 14 11 9 11 15 17 16 17 20 22 22 20 19 18 14 12 11 11 11 11 11 11 10 9
8 8 8 10 10 11 12 13 16 18 18 19 20 21 22 24 25 26 26 26 26 26 25 25 25 25 25 25 25 24 24 24 23 22 22 22 21 21 21 21 21 22 22 23 23 22 20 19 19 17 12 7 6 7 9 12 13 14 16 21 22 20 19 19 17 15 14 13 12 12 12 12 12 10
6 6 8 9 10 12 14 15 17 18 19 20 22 23 24 25 25 26 27 26 25 25 25 25 25 25 25 25 25 25 24 23 23 22 22 21 21 20 20 20 20 21 22 22 23 22 21 20 20 19 14 8 6 6 6 8 10 11 11 14 18 19 20 20 20 18 16 14 13 13 12 12 12 11
7 7 9 11 12 14 16 16 17 18 20 22 23 24 25 26 26 26 26 25 25 26 26 25 26 26 26 26 25 25 24 23 22 22 22 21 21 21 20 20 20 20 20 20 20 21 21 21 21 21 20 16 14 14 12 11 11 12 11 12 14 16 20 22 20 19 18 17 16 14 13 13 13 12
8 9 11 12 13 14 15 17 18 19 21 23 24 25 25 26 26 26 25 25 26 26 26 26 26 26 26 26 25 25 24 23 23 23 22 22 22 22 22 21 21 20 19 19 18 18 19 21 22 23 24 23 23 23 21 17 15 17 18 16 15 15 19 22 21 21 21 20 20 20 19 18 17 15
9 10 12 12 12 13 15 16 18 20 22 24 25 25 25 25 25 25 26 26 26 26 26 26 26 25 25 26 25 25 24 23 23 23 22 22 22 22 22 22 22 20 19 18 18 18 20 23 23 22 22 23 23 20 15 10 9 13 16 16 14 14 17 22 23 22 21 23 24 22 20 20 20 19
10 11 12 12 12 13 14 16 19 22 24 25 25 26 26 26 26 25 26 26 26 26 26 26 26 26 26 26 25 24 24 24 24 23 22 22 21 21 21 20 20 20 19 18 19 21 22 22 20 19 18 20 20 15 8 6 8 10 11 10 9 10 12 19 23 22 22 24 25 23 21 19 16 14
11 11 10 11 13 14 16 18 22 24 25 25 26 26 26 26 26 26 26 27 27 27 27 27 27 26 26 26 26 25 24 24 24 24 23 22 22 21 20 20 20 20 20 20 21 22 21 19 17 17 17 18 18 15 10 9 10 10 8 6 5 5 9 14 19 21 22 24 25 24 24 23 18 14
10 10 10 11 13 15 17 20 23 25 25 26 26 27 27 26 27 27 27 27 27 28 28 28 27 26 26 26 26 25 25 24 24 24 24 23 23 23 22 22 22 21 20 20 20 19 18 17 16 15 16 17 18 16 13 11 11 11 10 9 11 14 15 17 19 20 21 21 19 19 23 24 19 19
9 9 9 11 13 15 18 21 23 25 25 26 27 28 28 27 27 28 28 28 28 28 28 28 27 27 26 26 25 25 25 25 25 24 24 24 23 23 23 22 21 20 19 17 16 16 15 14 13 14 15 17 17 16 15 14 12 12 13 15 16 18 20 21 22 21 18 14 12 13 17 17 12 14
Wind_Direction
116 106 88 80 83 82 76 70 80 107 107 94 72 50 55 64 55 57 6 329 309 3 9 12 3 0 2 358 2 19 23 10 0 354 343 335 325 313 307 302 299 296 291 289 290 291 291 290 289 287 283 278 272 265 256 250 247 247 247 246 247 248 248 244 239 237 235 232 229 229 228 230 236 238
131 128 119 103 88 86 85 76 73 85 92 89 84 64 58 59 61 75 39 330 311 345 355 358 350 345 346 345 344 349 354 347 337 328 319 317 316 313 309 304 301 297 295 293 292 291 290 289 289 288 287 284 279 273 267 260 254 250 249 248 247 248 249 248 244 243 241 236 235 235 232 230 235 241
149 142 134 128 117 102 96 90 75 68 69 70 74 76 71 67 55 43 36 338 316 339 343 339 337 338 336 336 338 340 345 344 336 328 319 312 310 309 307 304 301 298 297 297 297 296 293 290 287 285 284 283 280 275 272 269 264 258 254 252 251 251 252 251 249 249 246 241 239 239 235 232 234 239
165 151 148 157 146 132 133 125 111 73 43 43 42 62 71 77 70 6 0 250 294 322 330 326 329 335 336 339 343 342 340 338 333 329 326 322 317 314 312 309 305 302 300 299 300 300 298 295 292 288 284 281 279 276 272 270 267 265 262 258 255 254 254 254 253 253 251 246 244 243 239 234 233 236
190 171 166 185 190 161 152 143 139 176 174 12 352 346 29 45 43 318 299 278 298 313 318 319 324 332 336 338 339 335 328 324 323 320 318 317 315 314 313 311 308 307 305 302 300 299 298 298 298 294 287 281 276 272 271 271 271 269 267 264 261 259 257 256 255 255 254 253 252 249 244 237 233 234
206 199 195 211 214 185 167 171 185 180 159 134 38 28 33 7 9 346 316 303 295 300 308 316 321 326 331 327 323 321 317 317 318 316 314 312 311 310 310 309 309 310 309 305 302 299 298 300 302 301 295 285 275 268 267 271 275 275 273 270 268 265 263 261 259 257 256 256 255 253 250 245 238 237
214 213 210 212 205 201 206 202 180 149 137 143 28 356 1 346 340 336 318 308 300 298 306 315 318 321 322 316 314 315 314 316 316 313 311 309 306 306 308 307 308 309 307 304 299 297 298 301 302 302 299 292 282 271 264 265 270 274 276 275 273 271 268 267 265 263 260 258 256 254 253 251 247 243
221 220 218 214 209 220 233 217 178 160 179 248 264 268 274 289 302 313 312 313 318 316 311 310 310 314 315 312 313 316 316 315 314 312 310 308 306 304 305 305 305 305 304 302 300 298 299 302 304 304 303 299 293 283 272 268 270 273 275 276 276 275 273 272 270 268 265 262 259 255 253 252 251 249
225 225 225 221 221 233 238 216 210 237 248 250 252 260 275 280 287 297 300 303 311 314 313 309 307 309 311 310 312 316 318 317 314 312 310 308 308 307 305 304 303 304 303 300 300 300 300 301 302 303 303 301 298 293 286 280 277 277 277 278 278 277 277 275 273 271 269 265 263 259 256 253 251 249
232 229 226 220 219 227 225 214 220 239 244 251 264 272 279 284 287 294 297 300 303 305 307 306 305 307 310 312 313 317 322 321 317 316 314 312 313 312 311 309 305 304 303 300 299 300 301 301 301 301 300 299 297 294 291 288 284 282 280 279 279 279 278 277 275 272 270 267 264 262 259 256 253 250
233 231 220 211 209 214 217 221 228 237 246 256 265 270 281 287 288 291 295 298 301 304 307 307 307 311 311 311 314 318 322 319 319 327 330 327 323 320 318 317 313 308 304 303 302 300 300 301 302 304 303 302 302 300 296 292 289 286 283 280 279 278 278 278 277 275 271 267 264 262 260 258 256 253
226 220 207 201 206 214 223 232 236 242 252 257 257 271 292 296 294 295 297 299 303 305 307 306 307 311 310 309 313 317 321 324 327 332 336 331 326 323 320 316 317 318 314 309 306 304 305 306 306 306 304 302 305 308 307 304 301 298 295 290 286 283 280 277 276 276 274 270 266 264 261 259 258 256
214 208 201 200 210 221 229 239 245 249 253 254 260 280 297 299 296 299 298 298 302 303 303 303 305 309 307 307 313 318 321 328 328 324 323 322 321 322 320 313 314 322 319 314 312 309 311 316 314 310 307 303 302 304 306 308 308 308 308 305 302 298 292 286 280 276 274 273 271 267 264 261 260 259
204 203 203 206 215 225 232 241 247 250 250 255 268 282 293 297 297 298 298 300 303 304 304 303 305 307 304 305 311 312 310 314 317 318 321 323 321 322 322 315 311 313 313 315 316 309 308 316 316 311 308 304 298 295 296 299 304 306 307 307 307 306 305 302 294 285 277 274 273 271 267 264 263 262
198 196 199 205 213 223 233 240 244 247 251 260 274 284 291 295 295 294 295 298 301 300 298 298 300 300 299 301 305 305 306 310 313 314 316 320 322 324 324 316 307 305 307 316 317 307 301 307 310 305 302 300 297 293 290 291 294 296 296 297 298 299 299 300 300 297 289 281 274 271 269 267 265 264
197 196 199 203 211 221 230 236 240 246 255 268 280 287 290 289 289 290 290 292 294 294 292 292 293 293 293 296 300 301 305 308 309 308 309 311 314 314 312 305 300 302 307 316 315 306 300 302 303 300 297 298 298 297 294 293 292 292 291 290 291 293 294 294 294 294 293 290 282 273 267 266 264 264
200 199 200 202 208 218 222 226 235 246 259 270 274 275 274 275 277 281 285 288 290 293 292 288 287 290 291 290 293 297 299 300 302 303 303 303 303 303 302 300 300 303 308 313 311 302 300 303 302 297 297 299 299 299 300 300 298 297 294 291 290 290 290 290 290 289 287 287 284 277 266 260 260 261
200 200 200 199 200 205 210 218 232 247 257 261 262 260 259 261 268 278 288 291 290 293 296 293 293 297 297 293 294 298 297 296 297 296 295 295 296 296 296 297 298 300 302 306 304 297 298 304 302 296 297 300 301 301 303 303 302 301 298 295 293 290 288 287 287 288 286 282 279 275 266 258 255 257
190 190 191 190 191 199 214 232 245 254 260 261 261 262 264 269 277 287 293 294 293 294 297 297 299 303 304 299 299 299 297 294 293 291 289 290 293 295 294 293 294 294 295 299 298 291 294 301 298 295 299 302 302 302 304 305 306 304 298 296 294 291 290 289 286 287 287 283 277 270 264 258 255 258
177 179 184 191 204 225 243 253 258 263 267 266 265 267 271 277 283 288 292 293 292 290 289 289 293 297 297 296 295 295 294 293 293 294 293 293 294 295 293 291 291 293 295 298 296 289 292 297 295 294 299 302 302 304 305 305 306 305 304 303 299 293 290 288 286 285 285 284 280 271 261 256 258 261
178 186 203 218 235 250 254 254 256 260 262 264 267 272 277 281 284 286 288 286 281 277 275 275 279 281 284 288 288 290 291 291 295 300 301 302 302 297 290 286 288 289 291 297 297 288 287 291 291 292 297 300 302 308 311 311 313 315 317 316 307 296 290 287 283 281 281 282 281 272 260 255 259 263
177 188 211 224 229 234 239 243 248 253 257 262 268 274 278 282 283 284 285 283 281 280 277 275 276 278 281 283 284 285 285 284 288 293 295 298 299 292 285 283 288 289 287 294 298 286 282 289 291 294 300 304 306 314 317 316 321 328 332 331 319 304 296 291 286 281 279 277 271 263 258 258 262 265
164 175 188 200 213 226 239 251 255 257 261 267 272 281 288 292 293 293 294 294 294 294 293 293 294 294 294 293 292 291 291 288 287 287 289 292 291 285 281 282 287 289 284 291 298 288 288 296 298 302 314 314 308 316 315 311 318 332 337 334 325 313 304 299 293 282 272 264 258 256 259 264 268 269
163 172 192 216 251 266 269 271 269 270 278 285 292 300 303 304 303 304 304 304 305 307 308 310 312 312 312 310 307 306 306 303 299 292 290 291 289 284 282 279 276 274 274 282 287 283 285 292 294 301 311 306 300 315 314 307 309 323 334 332 327 323 317 313 311 303 292 282 273 267 267 268 269 271
161 149 327 320 313 301 290 286 289 300 308 309 310 310 310 312 314 316 315 315 315 314 312 312 311 310 310 309 309 311 311 313 314 306 297 292 289 287 286 282 276 273 276 283 283 275 274 279 283 292 299 298 297 307 313 308 305 311 326 330 327 325 322 322 323 321 317 311 299 287 277 273 274 275
164 3 353 352 326 292 292 298 305 313 316 316 317 318 320 323 324 320 315 313 311 309 308 308 306 303 301 299 300 303 303 306 313 312 305 299 293 290 289 288 284 282 285 290 287 276 271 271 274 281 287 291 293 299 306 307 303 305 315 321 322 323 322 320 321 323 326 326 322 313 299 289 285 280
56 12 342 334 297 288 298 306 310 315 317 317 320 323 322 321 318 312 309 308 308 308 308 305 301 298 296 292 291 292 293 295 299 300 301 299 296 292 289 288 287 288 291 294 292 285 277 273 271 272 276 280 285 290 295 298 300 305 311 314 315 317 316 316 319 325 330 331 332 333 327 313 297 283
117 197 295 303 300 301 305 307 310 311 309 308 310 313 315 319 320 318 316 316 315 310 305 299 294 293 292 290 288 289 292 294 294 293 291 291 291 289 289 288 288 288 289 289 289 287 282 277 274 272 273 275 277 281 285 289 294 300 303 304 306 307 306 309 314 319 323 326 331 335 334 324 303 284
215 278 293 298 300 304 310 314 318 319 317 314 312 313 318 327 332 333 332 330 323 313 304 300 297 298 300 299 299 300 299 295 291 288 285 285 286 286 287 287 287 286 285 286 285 284 281 278 276 275 272 271 271 274 279 284 288 290 293 295 297 297 297 299 303 309 316 321 327 331 330 319 297 278
312 308 307 311 323 341 354 357 356 356 357 351 339 334 336 338 339 338 334 328 322 314 309 308 307 307 309 310 310 311 307 300 294 291 288 286 285 285 285 285 283 282 282 281 281 281 280 278 277 275 272 269 269 271 273 277 281 283 285 287 288 287 286 286 289 299 308 312 317 324 322 309 285 270
327 337 359 24 29 24 16 11 9 7 5 359 349 342 338 335 332 327 322 317 314 309 307 306 305 304 305 307 307 309 308 303 300 297 294 290 288 287 287 284 282 282 282 281 281 280 278 277 276 275 273 271 269 270 272 273 274 277 281 284 285 286 282 275 273 281 290 296 305 311 307 293 273 259
38 58 59 52 37 18 5 360 358 355 349 344 337 332 330 327 323 320 317 315 313 310 307 305 304 303 303 304 304 305 304 301 300 299 295 291 288 287 285 281 280 282 282 281 281 279 276 275 274 272 271 269 269 271 274 275 275 275 278 281 286 291 289 276 265 267 274 281 288 288 282 274 262 249
74 60 49 45 33 18 7 3 0 357 351 345 339 333 329 326 323 322 320 316 313 311 309 306 304 304 302 301 301 301 299 298 298 298 294 290 287 286 282 277 277 278 278 278 279 278 276 274 272 271 270 269 270 272 274 275 275 274 274 276 279 286 287 275 262 259 261 258 253 246 240 241 243 240
62 46 45 44 31 17 12 9 5 358 351 346 341 336 331 327 324 322 319 316 314 313 309 306 303 301 300 298 297 296 295 294 295 294 291 287 284 282 278 276 276 275 275 275 276 276 276 275 274 274 273 271 270 269 266 266 269 272 272 271 269 273 276 268 252 243 243 242 233 216 204 209 224 234
52 44 44 38 26 17 14 11 2 352 345 341 337 334 329 327 325 321 318 317 316 313 309 305 302 299 297 295 294 293 291 291 290 289 287 284 280 277 275 274 274 274 274 273 274 276 276 275 273 271 270 268 269 268 264 262 263 267 267 263 259 258 259 254 240 230 231 235 224 203 187 188 203 216
51 49 43 35 27 20 14 5 353 345 339 336 334 332 327 324 322 319 318 317 315 312 309 306 303 300 297 295 294 293 291 289 286 285 283 280 277 275 273 270 270 272 271 270 271 273 273 270 266 263 262 261 261 266 269 268 264 264 263 260 255 249 242 234 225 220 219 217 211 202 190 181 184 196
50 48 37 33 29 17 5 355 345 340 337 334 332 328 324 320 318 318 318 317 314 312 310 307 303 301 298 296 295 293 291 289 286 283 281 280 276 273 271 269 269 269 267 268 269 269 267 264 260 253 250 252 252 257 268 269 265 264 264 261 256 246 232 215 202 199 204 207 205 201 191 177 173 185
51 45 34 31 21 5 355 349 344 340 336 333 330 327 323 320 318 318 318 316 313 311 309 305 302 300 298 297 295 293 291 288 285 282 280 278 275 271 268 268 267 267 267 266 267 265 261 258 255 248 241 240 252 259 262 262 259 259 263 264 258 243 222 203 191 186 187 189 188 188 187 179 172 176
60 46 34 27 13 359 352 350 346 340 335 332 329 325 321 318 317 317 317 316 313 311 308 304 301 299 298 296 294 292 290 287 284 282 280 278 276 272 270 269 268 268 267 265 263 261 256 250 246 242 237 236 244 252 254 256 259 261 265 277 273 245 215 200 191 181 175 174 171 165 163 165 165 170
56 42 30 20 8 356 350 347 343 338 334 331 329 325 322 319 317 317 316 315 314 312 308 305 303 300 298 297 295 293 289 286 284 282 280 279 277 274 272 271 269 269 268 264 262 259 252 247 247 245 244 247 254 259 260 258 262 265 265 273 282 262 227 210 197 181 171 168 164 154 148 148 150 155
45 36 27 16 2 350 345 342 338 335 334 334 332 329 326 323 320 318 316 315 314 312 309 307 305 301 299 297 296 293 290 287 286 284 281 280 278 274 273 271 268 266 265 261 260 258 255 257 259 257 255 257 259 261 260 252 249 257 258 263 279 272 237 219 211 199 183 170 158 145 139 142 146 148
37 30 20 7 355 347 343 339 335 333 334 335 335 333 330 327 324 321 319 318 317 314 311 309 307 304 302 300 298 295 291 289 288 286 284 281 279 276 274 270 265 263 261 259 260 263 264 266 265 259 255 253 248 242 239 229 228 239 247 255 273 268 231 213 210 206 194 181 168 154 145 144 143 144
35 26 14 1 353 348 343 338 337 336 336 336 336 336 333 330 327 325 322 320 318 316 313 311 309 307 304 302 301 298 294 290 289 288 286 284 281 279 276 272 269 267 265 264 266 268 268 267 262 253 245 240 234 229 227 224 221 221 219 208 194 185 184 189 190 185 179 178 177 173 167 163 162 169
32 21 11 1 354 347 343 341 342 341 339 338 338 337 335 332 329 327 325 322 319 317 315 313 311 309 308 306 304 300 296 294 291 289 287 286 284 280 277 275 274 272 270 267 267 269 268 266 260 249 237 229 226 224 219 211 206 201 193 175 158 150 149 157 163 163 162 167 175 180 178 176 180 187
27 19 11 0 352 347 347 347 347 346 344 343 342 339 337 335 332 329 328 325 323 320 318 317 315 313 312 310 307 303 300 299 296 293 290 288 286 283 280 278 275 273 271 267 262 262 264 263 256 244 232 227 227 223 214 205 197 186 171 157 148 145 145 146 148 147 144 146 162 180 182 182 190 188